RYR63LJ LEPA-LEZL

Flight info

Callsign RYR63LJ
Flight time 1h 10m
Altitude 35000
Route BAVE5A BAVER DCT GERVU DCT ALT DCT RESTU DCT TOSGA DCT ROLAS DCT UNTOS DCT RIXUR DCT MGA M744 MAR MAR3M
Aircraft A320/M-SDE3FGHIRWY/LB1

Departure

Time 2026-04-25 19:31
Airport Palma de Mallorca Airport (LEPA)

Arrival

Time 2026-04-25 20:41
Airport Seville Airport (LEZL)
Time Latitude Longitude Altitude Speed Heading
2026-04-25 19:09 39.55043 2.73536 39 ft 0 kts 164°
2026-04-25 19:22 39.55047 2.73535 38 ft 2 kts 165°
2026-04-25 19:23 39.55060 2.73530 38 ft 2 kts 165°
2026-04-25 19:23 39.55087 2.73508 38 ft 2 kts 95°
2026-04-25 19:23 39.55085 2.73489 36 ft 0 kts 52°
2026-04-25 19:26 39.55088 2.73493 36 ft 3 kts 52°
2026-04-25 19:27 39.55114 2.73554 38 ft 10 kts 61°
2026-04-25 19:27 39.55140 2.73610 38 ft 11 kts 55°
2026-04-25 19:27 39.55236 2.73587 38 ft 13 kts 329°
2026-04-25 19:27 39.55324 2.73519 38 ft 17 kts 329°
2026-04-25 19:28 39.55431 2.73458 38 ft 15 kts
2026-04-25 19:28 39.55500 2.73558 38 ft 13 kts 41°
2026-04-25 19:28 39.55586 2.73528 38 ft 15 kts 329°
2026-04-25 19:28 39.55678 2.73552 38 ft 16 kts 54°
2026-04-25 19:29 39.55740 2.73686 37 ft 18 kts 58°
2026-04-25 19:29 39.55811 2.73833 38 ft 20 kts 57°
2026-04-25 19:29 39.55889 2.73993 38 ft 22 kts 58°
2026-04-25 19:29 39.55975 2.74173 38 ft 24 kts 59°
2026-04-25 19:30 39.56080 2.74294 36 ft 16 kts 27°
2026-04-25 19:30 39.56183 2.74348 38 ft 16 kts
2026-04-25 19:30 39.56218 2.74239 37 ft 15 kts 244°
2026-04-25 19:30 39.56160 2.74125 38 ft 26 kts 238°
2026-04-25 19:31 39.55939 2.73658 38 ft 93 kts 238°
2026-04-25 19:31 39.55508 2.72748 38 ft 142 kts 238°
2026-04-25 19:31 39.54941 2.71537 322 ft 155 kts 238°
2026-04-25 19:31 39.54390 2.70341 924 ft 156 kts 237°
2026-04-25 19:32 39.53798 2.69150 1464 ft 158 kts 236°
2026-04-25 19:32 39.53181 2.67942 1863 ft 168 kts 236°
2026-04-25 19:32 39.52491 2.66596 2074 ft 191 kts 236°
2026-04-25 19:32 39.52247 2.66120 2152 ft 198 kts 236°
2026-04-25 19:33 39.50857 2.63411 2814 ft 226 kts 236°
2026-04-25 19:33 39.49993 2.61722 3555 ft 229 kts 235°
2026-04-25 19:33 39.49096 2.59972 4326 ft 231 kts 235°
2026-04-25 19:33 39.48217 2.58253 5096 ft 233 kts 236°
2026-04-25 19:34 39.47321 2.56498 5844 ft 235 kts 236°
2026-04-25 19:34 39.46414 2.54720 6574 ft 238 kts 236°
2026-04-25 19:34 39.45493 2.52918 7268 ft 241 kts 236°
2026-04-25 19:34 39.44539 2.51036 7648 ft 262 kts 237°
2026-04-25 19:35 39.43501 2.48970 8000 ft 283 kts 237°
2026-04-25 19:35 39.42412 2.46792 8646 ft 292 kts 237°
2026-04-25 19:35 39.41304 2.44570 9394 ft 296 kts 237°
2026-04-25 19:35 39.40179 2.42316 10135 ft 301 kts 236°
2026-04-25 19:36 39.39014 2.39998 10530 ft 318 kts 236°
2026-04-25 19:36 39.37766 2.37518 10751 ft 338 kts 236°
2026-04-25 19:36 39.36469 2.34935 11272 ft 346 kts 236°
2026-04-25 19:36 39.35150 2.32307 11920 ft 351 kts 236°
2026-04-25 19:37 39.33817 2.29653 12587 ft 354 kts 236°
2026-04-25 19:37 39.32463 2.26969 13249 ft 358 kts 236°
2026-04-25 19:37 39.31096 2.24264 13925 ft 361 kts 236°
2026-04-25 19:37 39.29716 2.21541 14515 ft 364 kts 236°
2026-04-25 19:38 39.28325 2.18795 15098 ft 367 kts 236°
2026-04-25 19:38 39.26920 2.16022 15672 ft 370 kts 236°
2026-04-25 19:38 39.25504 2.13229 16241 ft 373 kts 236°
2026-04-25 19:38 39.24075 2.10412 16811 ft 377 kts 236°
2026-04-25 19:39 39.22636 2.07576 17381 ft 380 kts 236°
2026-04-25 19:39 39.21183 2.04714 17955 ft 383 kts 236°
2026-04-25 19:39 39.19718 2.01828 18519 ft 386 kts 236°
2026-04-25 19:39 39.18239 1.98921 19029 ft 389 kts 236°
2026-04-25 19:40 39.16748 1.95990 19545 ft 392 kts 238°
2026-04-25 19:40 39.15485 1.92858 20063 ft 396 kts 248°
2026-04-25 19:40 39.14652 1.89472 20583 ft 399 kts 255°
2026-04-25 19:40 39.13925 1.86011 21087 ft 402 kts 255°
2026-04-25 19:41 39.13188 1.82527 21581 ft 405 kts 255°
2026-04-25 19:41 39.12451 1.79061 22070 ft 408 kts 255°
2026-04-25 19:41 39.11697 1.75531 22570 ft 411 kts 255°
2026-04-25 19:41 39.11439 1.74329 22734 ft 412 kts 255°
2026-04-25 19:42 39.10163 1.68384 23544 ft 417 kts 254°
2026-04-25 19:42 39.09387 1.64775 23948 ft 420 kts 254°
2026-04-25 19:42 39.08604 1.61149 24089 ft 421 kts 254°
2026-04-25 19:42 39.07816 1.57518 24121 ft 421 kts 254°
2026-04-25 19:43 39.07032 1.53894 24123 ft 420 kts 254°
2026-04-25 19:43 39.06248 1.50273 24122 ft 420 kts 254°
2026-04-25 19:43 39.05463 1.46650 24117 ft 420 kts 254°
2026-04-25 19:43 39.04679 1.43028 24122 ft 421 kts 254°
2026-04-25 19:44 39.03889 1.39385 24498 ft 424 kts 254°
2026-04-25 19:44 39.03091 1.35729 24938 ft 425 kts 254°
2026-04-25 19:44 39.02288 1.32062 25360 ft 427 kts 254°
2026-04-25 19:44 39.01480 1.28378 25766 ft 429 kts 254°
2026-04-25 19:45 39.00670 1.24680 26161 ft 431 kts 254°
2026-04-25 19:45 38.99859 1.20966 26553 ft 432 kts 254°
2026-04-25 19:45 38.99042 1.17219 26937 ft 434 kts 254°
2026-04-25 19:45 38.98227 1.13497 27307 ft 436 kts 254°
2026-04-25 19:46 38.97398 1.09738 27658 ft 438 kts 254°
2026-04-25 19:46 38.96560 1.05964 28022 ft 440 kts 253°
2026-04-25 19:46 38.95717 1.02177 28381 ft 442 kts 253°
2026-04-25 19:46 38.94869 0.98369 28750 ft 444 kts 253°
2026-04-25 19:47 38.94020 0.94551 29108 ft 446 kts 254°
2026-04-25 19:47 38.93167 0.90715 29464 ft 448 kts 253°
2026-04-25 19:47 38.92310 0.86868 29814 ft 449 kts 254°
2026-04-25 19:47 38.91450 0.83002 30160 ft 451 kts 254°
2026-04-25 19:48 38.90881 0.80439 30358 ft 452 kts 254°
2026-04-25 19:48 38.90013 0.76544 30641 ft 454 kts 253°
2026-04-25 19:48 38.89141 0.72645 31017 ft 453 kts 253°
2026-04-25 19:48 38.88270 0.68761 31388 ft 454 kts 252°
2026-04-25 19:49 38.87201 0.64958 31727 ft 453 kts 247°
2026-04-25 19:49 38.86422 0.62473 31978 ft 453 kts 247°
2026-04-25 19:49 38.84847 0.57463 32528 ft 452 kts 247°
2026-04-25 19:49 38.83675 0.53737 32930 ft 451 kts 247°
2026-04-25 19:50 38.81037 0.46484 33750 ft 447 kts 236°
2026-04-25 19:50 38.79334 0.43158 34151 ft 446 kts 235°
2026-04-25 19:50 38.77627 0.39849 34494 ft 445 kts 235°
2026-04-25 19:51 38.75919 0.36550 34826 ft 444 kts 235°
2026-04-25 19:51 38.74209 0.33257 35068 ft 445 kts 236°
2026-04-25 19:51 38.72490 0.29951 35134 ft 448 kts 236°
2026-04-25 19:52 38.68983 0.23206 35140 ft 462 kts 236°
2026-04-25 19:52 38.65386 0.16284 35141 ft 471 kts 236°
2026-04-25 19:53 38.61747 0.09277 35146 ft 474 kts 236°
2026-04-25 19:53 38.58095 0.02266 35139 ft 474 kts 236°
2026-04-25 19:54 38.54433 -0.04746 35136 ft 475 kts 235°
2026-04-25 19:54 38.50770 -0.11717 35137 ft 476 kts 235°
2026-04-25 19:55 38.47075 -0.18739 35142 ft 477 kts 235°
2026-04-25 19:55 38.43375 -0.25772 35140 ft 477 kts 235°
2026-04-25 19:56 38.39668 -0.32792 35141 ft 477 kts 235°
2026-04-25 19:56 38.35955 -0.39813 35136 ft 478 kts 235°
2026-04-25 19:57 38.32239 -0.46826 35129 ft 478 kts 235°
2026-04-25 19:57 38.28518 -0.53829 35131 ft 478 kts 235°
2026-04-25 19:58 38.25300 -0.61221 35135 ft 479 kts 245°
2026-04-25 19:58 38.22535 -0.68917 35134 ft 479 kts 245°
2026-04-25 19:59 38.19766 -0.76622 35137 ft 479 kts 244°
2026-04-25 19:59 38.16981 -0.84307 35148 ft 479 kts 244°
2026-04-25 20:00 38.14208 -0.91924 35155 ft 478 kts 244°
2026-04-25 20:00 38.11415 -0.99585 35159 ft 478 kts 244°
2026-04-25 20:01 38.07229 -1.11073 35160 ft 478 kts 244°
2026-04-25 20:01 38.04426 -1.18717 35156 ft 478 kts 244°
2026-04-25 20:02 38.01624 -1.26341 35156 ft 478 kts 244°
2026-04-25 20:02 37.98812 -1.33991 35153 ft 478 kts 244°
2026-04-25 20:03 37.95991 -1.41633 35161 ft 479 kts 244°
2026-04-25 20:03 37.93168 -1.49270 35169 ft 479 kts 244°
2026-04-25 20:04 37.90338 -1.56893 35177 ft 478 kts 244°
2026-04-25 20:04 37.87502 -1.64511 35173 ft 478 kts 244°
2026-04-25 20:05 37.84681 -1.72070 35180 ft 478 kts 244°
2026-04-25 20:05 37.81834 -1.79672 35179 ft 478 kts 243°
2026-04-25 20:06 37.78979 -1.87272 35178 ft 478 kts 244°
2026-04-25 20:06 37.76127 -1.94870 35178 ft 478 kts 243°
2026-04-25 20:07 37.73269 -2.02453 35186 ft 478 kts 243°
2026-04-25 20:07 37.70406 -2.10027 35184 ft 478 kts 243°
2026-04-25 20:08 37.67535 -2.17607 35188 ft 478 kts 244°
2026-04-25 20:08 37.64659 -2.25183 35183 ft 479 kts 244°
2026-04-25 20:09 37.61781 -2.32751 35186 ft 478 kts 244°
2026-04-25 20:09 37.58916 -2.40267 35185 ft 478 kts 243°
2026-04-25 20:10 37.56014 -2.47859 35180 ft 478 kts 243°
2026-04-25 20:10 37.53152 -2.55346 35180 ft 477 kts 243°
2026-04-25 20:11 37.50262 -2.62878 35173 ft 477 kts 243°
2026-04-25 20:11 37.47365 -2.70398 35167 ft 477 kts 243°
2026-04-25 20:12 37.44467 -2.77902 35163 ft 476 kts 243°
2026-04-25 20:12 37.42531 -2.82914 35170 ft 476 kts 243°
2026-04-25 20:13 37.38681 -2.92875 35160 ft 475 kts 243°
2026-04-25 20:13 37.35780 -3.00340 35159 ft 475 kts 243°
2026-04-25 20:14 37.32872 -3.07790 35148 ft 475 kts 243°
2026-04-25 20:14 37.29959 -3.15237 35150 ft 475 kts 243°
2026-04-25 20:15 37.27045 -3.22684 35147 ft 475 kts 243°
2026-04-25 20:15 37.24145 -3.30073 35146 ft 475 kts 243°
2026-04-25 20:16 37.21222 -3.37512 35142 ft 475 kts 243°
2026-04-25 20:16 37.18297 -3.44939 35145 ft 475 kts 243°
2026-04-25 20:17 37.15367 -3.52357 35141 ft 474 kts 243°
2026-04-25 20:17 37.12435 -3.59752 35140 ft 474 kts 243°
2026-04-25 20:18 37.09501 -3.67135 35133 ft 473 kts 243°
2026-04-25 20:18 37.06567 -3.74505 35135 ft 473 kts 243°
2026-04-25 20:19 37.03631 -3.81874 35138 ft 473 kts 243°
2026-04-25 20:19 37.00698 -3.89214 34701 ft 465 kts 244°
2026-04-25 20:20 36.99262 -3.92788 33836 ft 457 kts 243°
2026-04-25 20:20 36.97842 -3.96314 32881 ft 451 kts 243°
2026-04-25 20:20 36.96441 -3.99795 31929 ft 446 kts 243°
2026-04-25 20:20 36.95053 -4.03241 30997 ft 442 kts 242°
2026-04-25 20:21 36.93679 -4.06657 30072 ft 439 kts 242°
2026-04-25 20:21 36.92317 -4.10051 29049 ft 435 kts 242°
2026-04-25 20:21 36.90967 -4.13407 28158 ft 429 kts 243°
2026-04-25 20:21 36.89635 -4.16706 27318 ft 422 kts 243°
2026-04-25 20:22 36.88319 -4.19962 26492 ft 417 kts 243°
2026-04-25 20:22 36.87878 -4.21051 26219 ft 415 kts 243°
2026-04-25 20:22 36.85729 -4.26346 24987 ft 408 kts 243°
2026-04-25 20:22 36.84456 -4.29485 24268 ft 403 kts 243°
2026-04-25 20:23 36.83340 -4.32673 23739 ft 400 kts 254°
2026-04-25 20:23 36.82851 -4.36077 23274 ft 397 kts 269°
2026-04-25 20:23 36.83036 -4.39484 22801 ft 393 kts 283°
2026-04-25 20:23 36.83882 -4.42685 22399 ft 386 kts 297°
2026-04-25 20:24 36.85101 -4.45606 21916 ft 384 kts 300°
2026-04-25 20:24 36.86350 -4.48534 21481 ft 381 kts 300°
2026-04-25 20:24 36.87589 -4.51442 21041 ft 378 kts 300°
2026-04-25 20:24 36.88817 -4.54329 20605 ft 375 kts 300°
2026-04-25 20:25 36.90036 -4.57194 20172 ft 372 kts 300°
2026-04-25 20:25 36.91246 -4.60042 19733 ft 369 kts 300°
2026-04-25 20:25 36.92444 -4.62870 19308 ft 367 kts 300°
2026-04-25 20:25 36.93633 -4.65682 18878 ft 365 kts 300°
2026-04-25 20:26 36.94814 -4.68485 18458 ft 363 kts 300°
2026-04-25 20:26 36.95989 -4.71273 17986 ft 362 kts 300°
2026-04-25 20:26 36.97155 -4.74040 17557 ft 358 kts 300°
2026-04-25 20:26 36.98310 -4.76786 17147 ft 355 kts 300°
2026-04-25 20:27 36.99456 -4.79510 16735 ft 352 kts 300°
2026-04-25 20:27 37.00591 -4.82212 16329 ft 350 kts 299°
2026-04-25 20:27 37.01719 -4.84895 15926 ft 347 kts 299°
2026-04-25 20:27 37.02839 -4.87563 15524 ft 345 kts 299°
2026-04-25 20:28 37.03952 -4.90217 15111 ft 343 kts 299°
2026-04-25 20:28 37.05066 -4.92845 14707 ft 341 kts 302°
2026-04-25 20:28 37.06478 -4.95212 14308 ft 337 kts 315°
2026-04-25 20:28 37.08108 -4.97310 13918 ft 336 kts 315°
2026-04-25 20:29 37.09729 -4.99404 13493 ft 334 kts 315°
2026-04-25 20:29 37.11337 -5.01487 13096 ft 331 kts 315°
2026-04-25 20:29 37.12928 -5.03550 12693 ft 328 kts 315°
2026-04-25 20:29 37.14509 -5.05600 12309 ft 326 kts 315°
2026-04-25 20:30 37.16079 -5.07638 11927 ft 324 kts 315°
2026-04-25 20:30 37.17638 -5.09665 11546 ft 322 kts 315°
2026-04-25 20:30 37.19170 -5.11654 11163 ft 321 kts 315°
2026-04-25 20:30 37.20737 -5.13686 10781 ft 319 kts 315°
2026-04-25 20:31 37.22258 -5.15660 10404 ft 318 kts 315°
2026-04-25 20:31 37.23775 -5.17634 10224 ft 310 kts 315°
2026-04-25 20:31 37.25249 -5.19560 10016 ft 303 kts 315°
2026-04-25 20:31 37.26702 -5.21459 9678 ft 301 kts 315°
2026-04-25 20:32 37.28150 -5.23345 9328 ft 299 kts 315°
2026-04-25 20:32 37.29592 -5.25222 8973 ft 298 kts 315°
2026-04-25 20:32 37.31020 -5.27080 8445 ft 294 kts 315°
2026-04-25 20:32 37.32431 -5.28920 7878 ft 290 kts 315°
2026-04-25 20:33 37.33801 -5.30714 7511 ft 279 kts 315°
2026-04-25 20:33 37.35118 -5.32440 7182 ft 268 kts 315°
2026-04-25 20:33 37.36387 -5.34104 6861 ft 261 kts 315°
2026-04-25 20:33 37.36816 -5.34663 6760 ft 264 kts 315°
2026-04-25 20:34 37.38937 -5.37439 6211 ft 265 kts 314°
2026-04-25 20:34 37.40014 -5.39321 5858 ft 267 kts 298°
2026-04-25 20:34 37.40683 -5.41520 5445 ft 272 kts 283°
2026-04-25 20:34 37.40914 -5.43879 5100 ft 273 kts 274°
2026-04-25 20:35 37.41043 -5.46260 4759 ft 273 kts 274°
2026-04-25 20:35 37.41180 -5.48643 4406 ft 273 kts 274°
2026-04-25 20:35 37.41319 -5.51024 4064 ft 273 kts 274°
2026-04-25 20:35 37.41458 -5.53393 3886 ft 266 kts 274°
2026-04-25 20:36 37.41590 -5.55642 3914 ft 250 kts 274°
2026-04-25 20:36 37.41713 -5.57759 3924 ft 235 kts 274°
2026-04-25 20:36 37.41813 -5.59736 3922 ft 219 kts 272°
2026-04-25 20:36 37.41843 -5.61607 3913 ft 211 kts 270°
2026-04-25 20:37 37.41845 -5.63416 3742 ft 208 kts 270°
2026-04-25 20:37 37.41843 -5.65229 3495 ft 207 kts 270°
2026-04-25 20:37 37.41841 -5.67027 3263 ft 203 kts 270°
2026-04-25 20:37 37.41839 -5.68792 2982 ft 201 kts 270°
2026-04-25 20:38 37.41837 -5.70540 2696 ft 198 kts 270°
2026-04-25 20:38 37.41834 -5.72256 2437 ft 194 kts 270°
2026-04-25 20:38 37.41831 -5.73936 2180 ft 189 kts 270°
2026-04-25 20:38 37.41828 -5.75543 1926 ft 177 kts 269°
2026-04-25 20:39 37.41826 -5.77026 1706 ft 161 kts 269°
2026-04-25 20:39 37.41823 -5.78366 1507 ft 148 kts 269°
2026-04-25 20:39 37.41820 -5.79644 1315 ft 144 kts 269°
2026-04-25 20:39 37.41819 -5.80066 1257 ft 143 kts 269°
2026-04-25 20:40 37.41811 -5.82118 964 ft 141 kts 268°
2026-04-25 20:40 37.41801 -5.82931 861 ft 141 kts 268°
2026-04-25 20:40 37.41804 -5.84162 690 ft 140 kts 270°
2026-04-25 20:40 37.41808 -5.85386 520 ft 139 kts 268°
2026-04-25 20:41 37.41797 -5.86600 295 ft 137 kts 268°
2026-04-25 20:41 37.41794 -5.87802 126 ft 137 kts 269°
2026-04-25 20:41 37.41789 -5.88869 104 ft 91 kts 270°
2026-04-25 20:41 37.41790 -5.89318 100 ft 32 kts 271°
2026-04-25 20:42 37.41798 -5.89622 99 ft 32 kts 269°
2026-04-25 20:42 37.41892 -5.89820 98 ft 24 kts 337°
2026-04-25 20:42 37.42043 -5.89906 96 ft 20 kts 338°
2026-04-25 20:42 37.42118 -5.89928 94 ft 11 kts 356°
2026-04-25 20:43 37.42178 -5.89974 94 ft 6 kts 316°
2026-04-25 20:43 37.42186 -5.89983 96 ft 0 kts 315°